This demonstration page uses our WeatherBlox Daily Observations layout. Learn more.

Left ArrowRight Arrow

Hourly Observations for July 7, 2018

Temp ( °F °C ) Dew Point ( °F °C ) Humidity (%) Winds ( mph kmh ) Pressure ( in mb ) Visibility ( mi km ) Precip ( " mm )
12:53 am 00:53 Clear 68 20 45 7.2 44 44 Calm 30.00 1016 10 16 0.00 0.00
1:53 am 01:53 Clear 67 19.4 48 8.9 51 51 NNW 5 7 30.00 1016 10 16 0.00 0.00
2:53 am 02:53 Clear 68 20 49 9.4 51 51 NNW 5 7 29.99 1016 10 16 0.00 0.00
3:53 am 03:53 Clear 64 17.8 49 9.4 58 58 Calm 29.99 1016 10 16 0.00 0.00
4:53 am 04:53 Clear 62 16.7 48 8.9 60 60 Calm 29.99 1016 10 16 0.00 0.00
5:53 am 05:53 Sunny 59 15 48 8.9 67 67 Calm 30.00 1016 10 16 0.00 0.00
6:53 am 06:53 Sunny 65 18.3 49 9.4 56 56 Calm 30.00 1016 10 16 0.00 0.00
7:53 am 07:53 Sunny 72 22.2 47 8.3 41 41 NNE 5 7 30.00 1016 10 16 0.00 0.00
8:53 am 08:53 Hazy 78 25.6 45 7.2 31 31 N 6 9 29.99 1016 5 8 0.00 0.00
9:53 am 09:53 Hazy 83 28.3 43 6.1 24 24 N 5 7 29.98 1015 4 6 0.00 0.00
10:53 am 10:53 Hazy 88 31.1 41 5 19 19 N 6 9 29.96 1015 5 8 0.00 0.00
11:53 am 11:53 Sunny 91 32.8 38 3.3 15 15 SSW 5 7 29.95 1014 8 13 0.00 0.00
12:53 pm 12:53 Sunny 94 34.4 37 2.8 14 14 S 7 11 29.94 1014 10 16 0.00 0.00
1:53 pm 13:53 Sunny 96 35.6 35 1.7 12 12 SSW 9 15 29.91 1013 10 16 0.00 0.00
2:53 pm 14:53 Sunny 98 36.7 32 0 10 10 undefined N/A 29.90 1012 10 16 0.00 0.00
3:53 pm 15:53 Sunny 99 37.2 20 -6.7 6 6 SE 10 17 29.87 1012 10 16 0.00 0.00
4:53 pm 16:53 Sunny 96 35.6 20 -6.7 6 6 SSE 13 20 29.87 1011 10 16 0.00 0.00
5:53 pm 17:53 Sunny 96 35.6 15 -9.4 5 5 SSE 10 17 29.85 1011 10 16 0.00 0.00
6:53 pm 18:53 Sunny 93 33.9 13 -10.6 5 5 S 8 13 29.84 1011 10 16 0.00 0.00
7:53 pm 19:53 Sunny 91 32.8 41 5 17 17 SSE 6 9 29.84 1010 10 16 0.00 0.00
8:53 pm 20:53 Clear 87 30.6 41 5 20 20 Calm 29.85 1011 10 16 0.00 0.00
9:53 pm 21:53 Clear 80 26.7 41 5 25 25 Calm 29.86 1011 10 16 0.00 0.00
10:53 pm 22:53 Clear 78 25.6 38 3.3 24 24 N 6 9 29.87 1012 10 16 0.00 0.00
11:53 pm 23:53 Clear 72 22.2 40 4.4 31 31 Calm 29.88 1012 10 16 0.00 0.00

Powered by AerisWeather